Weather in Posudichi

Russia / Bryansk Oblast     52°37′23″N   33°15′31″E
temp.,
°C
wind,
m/s
gust,
m/s
humid.,
%
clouds,
%
prec.,
mm/h
press.,
hPa
HPBL,
m
15 april, thu
thu1500:00+10ne2492100 0.3 1015100
03:00+9n3695100 0.6 1013187
06:00+9ne359590 0.1 1013155
09:00+11nne248177 0.6 1012279
12:00+14sw2271100 0.2 1011908
15:00+14s356594 1.5 10111057
18:00+13s356730 0.1 1011501
21:00+10sse117695 0.2 101211
16 april, fri
fri1600:00+10ene228097 0.4 101133
03:00+9ene3785100 0.6 1011172
06:00+7ese5109581 0.2 1012388
09:00+9ese6107798 0.3 1013886
12:00+11ese71065100 0.4 10141352
15:00+12se7106521 0.9 10141373
18:00+11sse587234 0.1 1015972
21:00+8ese22855 0.1 101627
17 april, sat
sat1700:00+6ese349131 0.0 101764
03:00+7ese249451 0.3 1018113
06:00+5ese239586 0.0 101939
09:00+9e227998 0.0 1019381
12:00+10ne4372100 0.5 1019828
15:00+8nne4583100 1.2 1020356
18:00+9n1178100 0.4 1019424
21:00+7n1190100 0.4 102030
18 april, sun
sun1800:00+7wnw2492100 0.2 1020166
03:00+7wnw3792100 0.3 1019298
06:00+7nnw379799 0.0 1019291
09:00+8ne468493 0.0 1019445
12:00+11ene5670100 0.0 10201167
15:00+10nne4669100 0.1 1021802
18:00+10ne487694 0.1 1021470
21:00+8ene4108174 0.2 1022393
19 april, mon
mon1900:00+8ne488237 0.1 1022235
03:00+5ne36945 0.1 1023135
06:00+4ne410940 0.0 1024267
09:00+8ene712745 0.0 1023779
12:00+12ene795672 0.0 10231566
15:00+11e61060100 0.0 10231532
18:00+10e61066100 0.0 10231454
21:00+7e6137938 0.1 1023615